カタログに戻る

INTELSAT 604

運用中通信GEO
NORAD 20667·PAYLOAD· XX

打ち上げ Jun 23, 1990 から Cape Canaveral Space Force Station

Loading…

TLE

最新Source: Space-Track

元期: Sep 13, 2026, 20:59 UTC

1 20667U 90056A   26256.87430919 -.00000008  00000-0  00000+0 0  9991
2 20667  14.6787   9.2914 0005153 299.3809  59.2442  0.98432460 47345

AllMySatでINTELSAT 604をリアルタイム追跡

Download on the App Store